[[{"header":{"parameterUnit":"m.s-1","parameterCategory":1,"la1":30.2991,"la2":30.254,"lo1":-89.0895,"lo2":-89.0444,"dy":0.0017,"dx":0.0017,"nx":28,"ny":28,"refTime":"2025-04-29T21:00:00:Z","depth":0,"parameterNumber":2,"parameterNumberName":"U-component_of_WINDS"},"data":[0,0,0,0,0,0,0,0,0,0,0,0,0,0,0,0,0,0,0,0,0,0,0,0,0,0,0,0,0,0,0,0,0,0,0,0,0,0,0,0,0,0,0,0,0,0,0,0,0,0,0,0,0,0,0,0,0,0,-2.8671,-2.8672,0,-2.8767,-2.8768,-2.8769,-2.8786,-2.8785,-2.8784,-2.8784,-2.8883,-2.8886,-2.889,0,0,0,0,0,0,0,0,0,0,0,0,0,-2.8503,-2.8506,-2.8671,-2.8672,-2.8673,-2.8767,-2.8768,-2.877,-2.8786,-2.8785,-2.8784,-2.8783,-2.8882,-2.8886,-2.889,0,0,0,0,0,0,0,0,0,0,0,0,0,-2.8586,-2.8507,-2.867,-2.8693,-2.8696,-2.8767,-2.8768,-2.877,-2.8786,-2.8785,-2.8784,-2.8783,-2.8881,-2.8885,-2.8891,-2.8946,0,0,-2.8906,-2.8908,0,0,0,0,0,0,0,0,-2.8581,-2.8592,-2.8688,-2.8691,-2.8695,-2.8763,-2.8746,-2.8829,-2.8787,-2.8752,-2.8784,-2.8782,-2.8844,-2.8852,-2.8873,-2.8951,-2.8955,-2.8907,-2.891,-2.8912,-2.8913,0,0,0,0,0,0,0,-2.8575,-2.8588,-2.8709,-2.869,-2.8694,-2.8699,-2.8709,-2.8762,-2.8804,-2.8755,-2.8756,-2.8767,-2.8846,-2.8868,-2.8875,-2.8957,-2.8906,-2.8911,-2.8914,-2.8916,-2.9087,-2.9089,0,0,0,0,0,0,-2.8565,-2.8583,-2.8706,-2.8712,-2.8634,-2.8703,-2.8714,-2.8743,-2.8803,-2.8811,-2.8768,-2.8768,-2.886,-2.8869,-2.8879,-2.8949,-2.8912,-2.8917,-2.892,-2.9086,-2.9088,-2.9089,0,0,0,0,0,0,-2.8562,-2.8576,-2.8702,-2.8648,-2.8664,-2.8707,-2.8739,-2.8745,-2.8767,-2.8813,-2.8821,-2.8783,-2.8859,-2.8872,-2.893,-2.8952,-2.8919,-2.8924,-2.9084,-2.9086,-2.9089,-2.9089,0,0,0,0,0,0,-2.8557,-2.8575,-2.8595,-2.8648,-2.8667,-2.875,-2.874,-2.8748,-2.8776,-2.8776,-2.8829,-2.8837,-2.8859,-2.8922,-2.8935,-2.8959,-2.8928,-2.9082,-2.9085,-2.9088,-2.9087,-2.909,-2.9094,0,0,0,0,0,-2.8551,-2.8592,-2.8596,-2.8611,-2.8694,-2.8751,-2.8762,-2.8787,-2.8778,-2.8799,-2.883,-2.8835,-2.8948,-2.8928,-2.8942,-2.8968,-2.9081,-2.9084,-2.9088,-2.9085,-2.909,-2.9094,0,0,0,0,0,0,-2.854,-2.8599,-2.8605,-2.8664,-2.8703,-2.8754,-2.8782,-2.8791,-2.8833,-2.8832,-2.8861,-2.8873,-2.8929,-2.8955,-2.8931,-2.9027,-2.9014,-2.902,-2.9007,-2.9012,-2.9016,-2.9007,-2.8932,0,0,0,0,0,-2.8545,-2.8586,-2.8635,-2.8683,-2.8702,-2.8739,-2.8765,-2.8781,-2.8822,-2.8839,-2.8873,-2.8913,-2.8958,-2.8987,-2.903,-2.9091,-2.9104,-2.9117,-2.912,-2.9123,-2.9127,-2.9163,-2.9169,-2.91,-2.91,-2.91,0,0,-2.8554,-2.8592,-2.8616,-2.8682,-2.8713,-2.8756,-2.8752,-2.8798,-2.883,-2.8846,-2.8902,-2.8929,-2.8977,-2.9036,-2.9064,-2.9059,-2.915,-2.9127,-2.9129,-2.9132,-2.9167,-2.9173,-2.9179,-2.9103,-2.9102,-2.9102,0,0,-2.8594,-2.8626,-2.8669,-2.8702,-2.875,-2.8775,-2.8786,-2.8837,-2.8855,-2.8913,-2.8926,-2.8966,-2.9042,-2.9075,-2.9102,-2.9157,-2.9164,-2.9171,-2.9189,-2.9222,-2.9228,-2.9233,-2.9252,-2.9259,-2.9176,-2.9176,-2.9176,0,-2.8599,-2.8664,-2.869,-2.8736,-2.8765,-2.8782,-2.8826,-2.8857,-2.8917,-2.8937,-2.8931,-2.9028,-2.9061,-2.9129,-2.9143,-2.9165,-2.9178,-2.9164,-2.9225,-2.923,-2.9235,-2.9254,-2.9261,-2.9176,-2.9176,-2.9176,-2.9176,0,-2.8669,-2.8714,-2.8743,-2.8801,-2.8834,-2.8878,-2.8913,-2.8943,-2.8957,-2.8982,-2.9042,-2.9082,-2.9135,-2.9153,-2.9167,-2.9224,-2.9219,-2.9219,-2.9207,-2.9242,-2.926,-2.9268,-2.9177,-2.9177,-2.9176,-2.9176,0,0,-2.8701,-2.8776,-2.8786,-2.8813,-2.8869,-2.8905,-2.8951,-2.9003,-2.9028,-2.907,-2.911,-2.9176,-2.9176,-2.9207,-2.9225,-2.9255,-2.9296,-2.9251,-2.9253,-2.9258,-2.9363,-2.9362,-2.9369,-2.9302,-2.9304,-2.9305,-2.9358,0,-2.8747,-2.8829,-2.8856,-2.8924,-2.8967,-2.8985,-2.9026,-2.9065,-2.9091,-2.9132,-2.9161,-2.9207,-2.9204,-2.9222,-2.9253,-2.9285,-2.9318,-2.9282,-2.934,-2.9342,-2.9326,-2.9379,-2.9378,-2.9426,-2.9366,-2.9367,-2.9368,0,-2.881,-2.8853,-2.8926,-2.8979,-2.8997,-2.9033,-2.9084,-2.9122,-2.9168,-2.9185,-2.9221,-2.9237,-2.9287,-2.9274,-2.9344,-2.9319,-2.9345,-2.9365,-2.9367,-2.9372,-2.9356,-2.9385,-2.9442,-2.9449,-2.938,-2.9379,-2.9378,0,-2.8826,-2.8903,-2.8957,-2.898,-2.9042,-2.9067,-2.9094,-2.9139,-2.9169,-2.9214,-2.9234,-2.9284,-2.9311,-2.935,-2.938,-2.9367,-2.9448,-2.9437,-2.9464,-2.9463,-2.9478,-2.9476,-2.9539,-2.9497,-2.9497,-2.9497,-2.9496,0,-2.8873,-2.8917,-2.8965,-2.8998,-2.9048,-2.9079,-2.9128,-2.9157,-2.9197,-2.9237,-2.9257,-2.9293,-2.9331,-2.9374,-2.9398,-2.9453,-2.9465,-2.9481,-2.9486,-2.9478,-2.9476,-2.9494,-2.9491,-2.9499,-2.9498,-2.9498,-2.9497,0,-2.8898,-2.8932,-2.8992,-2.9047,-2.9062,-2.9097,-2.9144,-2.9178,-2.9206,-2.9255,-2.9269,-2.9313,-2.9364,-2.9399,-2.9464,-2.948,-2.954,-2.9545,-2.9524,-2.9526,-2.9551,-2.9548,-2.9626,-2.9638,-2.9589,-2.9589,-2.959,0,-2.8925,-2.896,-2.9019,-2.9047,-2.9074,-2.9119,-2.915,-2.9183,-2.9214,-2.9271,-2.9297,-2.935,-2.9393,-2.9474,-2.9513,-2.9563,-2.957,-2.9594,-2.9577,-2.9568,-2.9569,-2.9566,-2.957,-2.9596,-2.9596,-2.9596,-2.9597,0,-2.897,-2.8986,-2.9029,-2.9079,-2.9116,-2.9157,-2.9198,-2.922,-2.9261,-2.9295,-2.9348,-2.9382,-2.9449,-2.9501,-2.9556,-2.9585,-2.9598,-2.9602,-2.9611,-2.9602,-2.9588,-2.9595,-2.953,-2.96,-2.9599,-2.9599,-2.9599,-2.9599,-2.8997,-2.9028,-2.9075,-2.9123,-2.9158,-2.9197,-2.9231,-2.9264,-2.9308,-2.9365,-2.9383,-2.9437,-2.9485,-2.9559,-2.959,-2.9634,-2.9632,-2.9644,-2.9647,-2.965,-2.965,-2.9582,-2.9644,-2.9644,-2.9644,-2.9644,-2.9644,0,-2.9042,-2.9073,-2.9117,-2.9175,-2.9213,-2.9223,-2.927,-2.9301,-2.9349,-2.9392,-2.9435,-2.9496,-2.9547,-2.959,-2.9644,-2.9671,-2.9678,-2.9684,-2.9681,-2.9688,-2.9649,-2.9635,-2.9677,-2.9677,-2.9677,-2.9677,-2.9677,-2.9677,-2.9069,-2.9123,-2.9145,-2.9217,-2.9249,-2.9302,-2.9328,-2.9365,-2.9399,-2.9466,-2.9509,-2.9537,-2.9581,-2.9638,-2.9686,-2.9697,-2.9716,-2.972,-2.9732,-2.9694,-2.9691,-2.9687,-2.9675,-2.9724,-2.9724,-2.9768,-2.9768,-2.9769]},{"header":{"parameterUnit":"m.s-1","parameterCategory":1,"la1":30.2991,"la2":30.254,"lo1":-89.0895,"lo2":-89.0444,"dy":0.0017,"dx":0.0017,"nx":28,"ny":28,"refTime":"2025-04-29T21:00:00:Z","depth":0,"parameterNumber":3,"parameterNumberName":"V-component_of_WINDS"},"data":[0,0,0,0,0,0,0,0,0,0,0,0,0,0,0,0,0,0,0,0,0,0,0,0,0,0,0,0,0,0,0,0,0,0,0,0,0,0,0,0,0,0,0,0,0,0,0,0,0,0,0,0,0,0,0,0,0,0,3.2106,3.2106,0,3.2068,3.2067,3.2067,3.206,3.2061,3.2061,3.2062,3.2016,3.2015,3.2013,0,0,0,0,0,0,0,0,0,0,0,0,0,3.2171,3.217,3.2107,3.2106,3.2106,3.2068,3.2067,3.2067,3.206,3.2061,3.2061,3.2062,3.2017,3.2015,3.2013,0,0,0,0,0,0,0,0,0,0,0,0,0,3.2139,3.217,3.2107,3.2098,3.2097,3.2068,3.2067,3.2067,3.206,3.2061,3.2061,3.2062,3.2017,3.2015,3.2013,3.1988,0,0,3.2006,3.2005,0,0,0,0,0,0,0,0,3.2141,3.2136,3.21,3.2098,3.2097,3.207,3.2074,3.204,3.206,3.2074,3.2062,3.2062,3.2033,3.203,3.2021,3.1986,3.1984,3.2006,3.2004,3.2003,3.2003,0,0,0,0,0,0,0,3.2143,3.2138,3.2091,3.2099,3.2098,3.2095,3.2091,3.2067,3.2051,3.2073,3.2072,3.2068,3.2033,3.2023,3.202,3.1984,3.2006,3.2004,3.2002,3.2002,3.1929,3.1929,0,0,0,0,0,0,3.2147,3.214,3.2092,3.209,3.2121,3.2093,3.2089,3.2078,3.2051,3.2048,3.2068,3.2068,3.2027,3.2023,3.2018,3.1989,3.2003,3.2001,3.2,3.193,3.1929,3.1929,0,0,0,0,0,0,3.2149,3.2143,3.2094,3.2115,3.2108,3.2092,3.2079,3.2077,3.2068,3.2048,3.2044,3.2062,3.2027,3.2022,3.1997,3.1988,3.2,3.1998,3.1931,3.193,3.1929,3.193,0,0,0,0,0,0,3.2151,3.2144,3.2135,3.2115,3.2107,3.2074,3.2079,3.2076,3.2064,3.2064,3.2041,3.2037,3.2027,3.2,3.1995,3.1985,3.1996,3.1931,3.193,3.1929,3.1931,3.193,3.1929,0,0,0,0,0,3.2153,3.2135,3.2134,3.2129,3.2096,3.2073,3.2069,3.2059,3.2064,3.2054,3.2042,3.2038,3.199,3.1998,3.1991,3.1981,3.1932,3.1931,3.1929,3.1932,3.193,3.1929,0,0,0,0,0,0,3.2151,3.2132,3.2131,3.2106,3.2092,3.2072,3.206,3.2058,3.204,3.204,3.2028,3.2022,3.1999,3.1987,3.1996,3.1957,3.1961,3.1959,3.1965,3.1963,3.1962,3.1965,3.1995,0,0,0,0,0,3.2149,3.2133,3.2117,3.2096,3.2089,3.2076,3.2066,3.206,3.2044,3.2037,3.2023,3.2006,3.1987,3.1975,3.1956,3.193,3.1925,3.192,3.1918,3.1917,3.1915,3.1902,3.19,3.1925,3.1925,3.1925,0,0,3.2142,3.2129,3.212,3.2096,3.2084,3.2068,3.2071,3.2052,3.204,3.2033,3.201,3.1999,3.198,3.1955,3.1943,3.1944,3.1908,3.1916,3.1915,3.1913,3.1901,3.1898,3.1896,3.1924,3.1924,3.1924,0,0,3.2121,3.211,3.2093,3.2082,3.2065,3.2057,3.2053,3.2035,3.2028,3.2005,3.2001,3.1985,3.1953,3.194,3.1929,3.1907,3.1903,3.1901,3.1894,3.1882,3.188,3.1878,3.1871,3.1869,3.1899,3.1899,3.1899,0,3.2114,3.2091,3.2084,3.2067,3.2057,3.2054,3.2036,3.2025,3.2002,3.1995,3.1997,3.1959,3.1945,3.1918,3.1913,3.1904,3.1899,3.1903,3.1881,3.1879,3.1877,3.187,3.1868,3.1899,3.1899,3.1899,3.1899,0,3.2083,3.2067,3.2055,3.2037,3.2025,3.2008,3.1998,3.1987,3.1983,3.1975,3.1952,3.1937,3.1916,3.1909,3.1904,3.1882,3.1884,3.1884,3.1888,3.1875,3.1868,3.1866,3.1899,3.1899,3.1899,3.1899,0,0,3.2058,3.2039,3.2034,3.2027,3.2009,3.1996,3.1979,3.1962,3.1953,3.1938,3.1923,3.1898,3.1899,3.1887,3.1881,3.187,3.1855,3.1871,3.1871,3.1869,3.1831,3.1831,3.1828,3.1853,3.1853,3.1852,3.1833,0,3.2035,3.2007,3.2002,3.1977,3.1962,3.196,3.1946,3.1933,3.1926,3.1912,3.1903,3.1885,3.1888,3.1881,3.187,3.1859,3.1847,3.1861,3.1839,3.1838,3.1844,3.1824,3.1824,3.1806,3.183,3.183,3.183,0,3.2005,3.1992,3.1966,3.1954,3.1947,3.1935,3.1919,3.1906,3.1892,3.1888,3.1876,3.1872,3.1854,3.186,3.1836,3.1845,3.1836,3.183,3.1829,3.1826,3.1833,3.1821,3.18,3.1797,3.1825,3.1826,3.1826,0,3.199,3.1966,3.1948,3.1942,3.1926,3.1918,3.191,3.1897,3.1888,3.1874,3.1868,3.1852,3.1842,3.183,3.1821,3.1826,3.1798,3.1803,3.1793,3.1793,3.1786,3.1787,3.1763,3.1781,3.1781,3.1781,3.1781,0,3.1965,3.1949,3.1942,3.1931,3.1914,3.1908,3.1891,3.1884,3.1873,3.186,3.1857,3.1844,3.1834,3.1821,3.1814,3.1795,3.1791,3.1786,3.1785,3.1787,3.1787,3.178,3.1781,3.178,3.1781,3.1781,3.1781,0,3.1944,3.1939,3.192,3.1908,3.1905,3.1892,3.1882,3.1871,3.1865,3.1849,3.1844,3.1834,3.1818,3.1809,3.1788,3.1784,3.1763,3.1762,3.1769,3.1768,3.1759,3.176,3.173,3.1726,3.1746,3.1746,3.1746,0,3.1929,3.1917,3.1905,3.1898,3.1891,3.1878,3.187,3.1865,3.1855,3.1841,3.1832,3.1817,3.1804,3.1779,3.1768,3.1753,3.1751,3.1742,3.1749,3.1752,3.1752,3.1753,3.1752,3.174,3.174,3.174,3.174,0,3.1902,3.1901,3.1889,3.1877,3.1868,3.1858,3.1848,3.1841,3.1834,3.1824,3.181,3.18,3.1781,3.1766,3.175,3.1742,3.174,3.1739,3.1736,3.1737,3.1741,3.174,3.1765,3.1739,3.1739,3.1739,3.1739,3.1739,3.1883,3.1874,3.1865,3.1853,3.1846,3.1837,3.1827,3.1821,3.1809,3.1794,3.1792,3.1777,3.1765,3.1745,3.1736,3.1724,3.1725,3.1721,3.1719,3.1718,3.1719,3.1744,3.1721,3.1721,3.1721,3.1721,3.1721,0,3.1857,3.1852,3.1841,3.1829,3.1819,3.1821,3.1811,3.1803,3.179,3.178,3.1769,3.1753,3.1739,3.1729,3.1715,3.1707,3.1706,3.1704,3.1704,3.1702,3.1718,3.1722,3.1705,3.1705,3.1705,3.1705,3.1705,3.1705,3.1842,3.1826,3.1825,3.1806,3.1801,3.1787,3.1781,3.1774,3.1766,3.1749,3.1739,3.1733,3.1724,3.171,3.1697,3.1695,3.169,3.1688,3.1685,3.1699,3.1701,3.1702,3.1706,3.1686,3.1686,3.167,3.167,3.167]}]]